Date,TemperatureHighF,TemperatureAvgF,TemperatureLowF,DewpointHighF,DewpointAvgF,DewpointLowF,HumidityHigh,HumidityAvg,HumidityLow,PressureMaxIn,PressureMinIn,WindSpeedMaxMPH,WindSpeedAvgMPH,GustSpeedMaxMPH,PrecipitationSumIn
2013-1-8,57,53,50,32,26,22,42,36,28,30.05,29.99,13,2,0,0.35
2013-1-9,53,47,34,34,27,22,98,47,30,30.00,29.79,19,6,0,0.00
2013-1-10,33,26,21,33,24,19,100,95,92,29.93,29.79,12,3,0,0.09
2013-1-12,31,23,15,30,21,12,98,93,89,30.17,30.07,0,0,0,0.25
2013-1-13,23,22,20,20,18,16,86,85,84,30.11,30.10,3,1,0,0.10
2013-1-14,28,25,21,12,10,7,63,54,46,30.41,30.30,2,0,0,0.06
2013-1-15,46,43,38,22,19,16,47,39,31,30.32,30.21,6,0,0,0.15
2013-1-16,56,50,40,29,18,3,44,29,17,30.28,30.09,7,0,0,0.01
2013-1-17,49,45,41,8,4,0,25,19,15,30.18,30.09,25,6,0,0.00
2013-1-18,49,46,43,8,3,-3,19,17,12,30.14,30.05,18,7,0,0.00
2013-1-19,49,46,43,4,1,-3,20,15,13,30.17,30.07,17,5,0,0.00
2013-1-20,51,47,44,7,1,-3,17,15,11,30.12,30.03,18,4,0,0.00
2013-1-21,53,48,44,6,0,-5,19,14,11,30.07,30.02,17,2,0,0.00
2013-1-22,50,48,44,7,4,-1,20,17,13,30.06,29.98,24,7,0,0.00
2013-1-23,54,48,38,32,18,6,72,34,17,30.02,29.91,30,12,0,0.01
2013-1-24,50,44,38,47,42,29,100,94,70,30.08,29.93,18,6,0,0.24
2013-1-25,43,41,39,43,41,39,100,99,96,30.07,29.92,25,4,0,0.13
2013-1-26,42,40,35,42,40,35,100,100,100,29.92,29.82,14,3,0,0.45
2013-1-27,36,28,24,36,28,23,100,97,95,30.05,29.87,10,2,0,0.01
2013-1-30,54,45,39,32,28,25,64,52,37,30.21,30.14,6,2,0,0.06
2013-1-31,57,48,43,31,26,18,54,43,32,30.19,30.04,18,2,0,0.00
2013-2-1,59,51,46,31,22,15,46,33,22,30.12,29.99,8,1,0,0.00
2013-2-2,52,48,41,36,22,8,83,39,18,30.18,30.07,12,3,0,0.01
2013-2-3,48,40,38,35,23,-100,85,62,35,30.10,30.00,9,-62,0,0.01
2013-2-4,57,48,43,32,24,19,52,39,27,30.04,29.92,9,1,0,0.00
2013-2-5,55,45,34,40,26,17,100,54,26,29.95,29.83,10,2,0,0.02
2013-2-6,43,35,29,37,24,-13,100,78,9,30.12,29.86,9,2,0,0.05
2013-2-7,53,39,28,37,15,-7,100,53,12,30.05,29.76,12,1,0,0.00
2013-2-8,28,25,23,28,24,21,97,95,94,29.89,29.76,10,2,0,0.05
2013-2-9,29,24,21,28,23,19,97,94,92,30.09,29.88,12,1,0,0.10
2013-2-10,33,28,23,30,25,21,93,90,85,30.06,29.98,7,1,0,0.31
2013-2-11,38,33,24,22,18,8,92,55,42,30.20,30.03,6,2,0,0.13
2013-2-12,45,36,28,24,18,8,71,50,28,30.29,30.18,7,1,0,0.00
2013-2-13,53,44,35,25,14,8,55,30,23,30.25,30.03,7,0,0,0.00
2013-2-14,53,46,43,23,19,12,43,35,27,30.15,30.01,13,2,0,0.00
2013-2-15,53,46,41,22,17,9,46,32,22,30.22,30.10,20,2,0,0.00
2013-2-16,53,46,42,16,12,7,34,25,19,30.17,29.94,21,4,0,0.00
2013-2-17,48,41,35,33,26,11,88,56,26,29.93,29.83,12,3,0,0.00
2013-2-18,53,43,31,30,17,-5,95,39,13,29.91,29.78,12,3,0,0.00
2013-2-19,36,28,22,30,25,7,97,90,30,29.81,29.60,6,0,0,0.05
2013-2-20,21,20,19,19,18,17,92,92,91,29.69,29.60,0,0,0,0.00
2013-2-21,31,29,28,31,29,27,99,98,97,30.11,30.02,6,2,0,0.36
2013-2-22,40,33,30,40,33,27,100,98,85,30.20,30.14,6,1,0,0.04
2013-2-23,33,31,27,33,29,24,100,93,79,30.16,29.95,20,4,0,0.00
2013-2-24,36,33,27,36,20,-2,99,67,21,30.21,30.05,12,2,0,0.00
2013-2-25,48,38,32,24,9,-2,72,33,18,30.22,30.00,11,2,0,0.00
2013-2-26,48,38,27,36,25,2,86,63,21,30.16,30.00,19,3,0,0.00
2013-2-27,49,42,36,30,12,1,65,31,21,30.28,30.08,10,2,0,0.00
2013-2-28,54,44,35,32,21,8,62,40,26,30.36,30.23,7,1,0,0.00
2013-3-1,58,51,42,22,16,10,36,25,20,30.31,30.14,22,3,0,0.00
2013-3-2,60,53,47,33,21,17,58,29,22,30.16,29.97,24,4,0,0.00
2013-3-3,50,44,37,38,30,12,95,61,28,29.99,29.85,17,3,0,0.00
2013-3-4,53,44,35,45,37,27,100,80,44,30.03,29.88,22,3,0,0.00
2013-3-5,52,44,32,34,29,23,92,58,38,29.95,29.82,26,10,0,0.00
2013-3-6,38,35,30,36,33,25,100,93,66,30.02,29.86,13,3,0,0.02
2013-3-7,38,32,29,33,29,26,100,89,66,29.91,29.72,18,6,0,0.01
2013-3-8,31,29,26,30,28,25,98,97,95,29.96,29.64,16,3,0,0.16
2013-3-9,32,30,28,32,30,27,99,98,97,30.29,29.95,0,0,0,0.15
2013-3-10,49,45,41,49,40,0,100,91,16,30.30,30.19,6,1,0,0.46
2013-3-11,60,53,45,45,12,-18,65,22,6,30.18,29.93,11,2,0,0.00
2013-3-12,62,56,48,22,12,0,23,17,11,30.04,29.90,14,2,0,0.00
2013-3-13,68,61,54,24,17,13,22,19,14,30.06,29.95,12,2,0,0.00
2013-3-14,72,62,54,45,22,10,47,23,13,29.98,29.89,14,3,0,0.00
2013-3-15,66,48,46,51,19,-100,96,48,19,29.94,29.82,12,-113,0,0.00
2013-3-16,54,46,40,45,41,34,100,85,56,29.96,29.82,17,4,0,0.00
2013-3-17,50,42,36,44,35,29,99,76,46,30.03,29.87,13,4,0,0.00
2013-3-18,55,44,37,36,28,11,92,56,25,30.02,29.92,16,3,0,0.00
2013-3-19,56,44,38,34,29,19,79,57,28,30.07,29.91,16,3,0,0.00
2013-3-20,50,40,38,42,28,-100,96,76,67,30.04,29.90,17,-70,0,0.00
2013-3-21,43,39,37,43,39,37,100,100,97,29.93,29.83,14,5,0,0.01
2013-3-22,42,30,31,42,15,-100,100,82,77,30.00,29.84,12,-142,0,0.00
2013-3-23,57,42,30,32,17,-3,97,43,11,30.05,29.95,13,3,0,0.00
2013-3-24,57,47,38,32,17,-4,51,31,14,30.03,29.87,8,2,0,0.00
2013-3-25,61,52,46,32,16,-10,40,25,7,29.89,29.80,11,1,0,0.00
2013-3-26,57,48,42,35,28,9,74,48,20,29.85,29.77,12,2,0,0.00
2013-3-27,54,45,38,41,38,33,96,77,58,29.92,29.77,14,4,0,0.00
2013-3-28,57,46,39,42,37,31,100,73,46,30.03,29.86,10,2,0,0.00
2013-3-29,63,52,44,36,29,22,71,43,26,29.99,29.92,14,4,0,0.01
2013-3-30,61,53,45,38,28,11,75,40,20,29.95,29.87,18,6,0,0.00
2013-3-31,47,43,38,45,41,38,100,93,72,29.98,29.85,11,2,0,0.34
2013-4-1,41,38,34,41,38,34,100,100,100,30.06,29.94,13,3,0,0.06
2013-4-2,50,42,38,50,42,38,100,98,84,30.07,29.98,12,3,0,0.01
2013-4-3,67,55,38,42,32,21,100,45,22,30.07,29.87,13,3,0,0.00
2013-4-4,55,49,45,46,41,25,100,75,34,29.98,29.82,16,2,0,0.00
2013-4-5,44,42,40,45,42,40,100,100,100,30.04,29.89,18,4,0,0.05
2013-4-6,41,39,38,41,39,38,100,100,100,30.09,29.98,21,5,0,0.01
2013-4-7,45,40,37,45,40,37,100,100,100,30.04,29.75,17,6,0,0.01
2013-4-8,42,32,25,42,32,25,100,99,97,29.86,29.58,21,6,0,0.00
2013-4-9,39,36,28,39,36,28,100,100,98,30.11,29.89,7,2,0,0.52
2013-4-10,56,50,36,39,30,6,100,48,22,30.11,29.97,8,2,0,0.00
2013-4-11,57,49,43,44,39,30,93,68,50,29.95,29.69,11,3,0,0.00
2013-4-12,64,52,42,48,42,34,95,70,43,29.80,29.67,10,2,0,0.00
2013-4-13,59,53,47,44,38,31,74,57,34,29.73,29.64,13,5,0,0.00
2013-4-14,50,44,40,45,38,28,100,81,56,29.73,29.61,18,6,0,0.00
2013-4-15,42,36,28,42,36,26,100,96,74,29.78,29.64,14,4,0,0.01
2013-4-16,35,26,22,31,24,20,98,93,71,29.97,29.75,18,4,0,0.00
2013-4-17,43,38,33,21,19,17,52,47,35,30.20,30.11,3,0,0,0.00
2013-4-18,55,46,32,21,17,9,52,33,19,30.22,30.12,11,2,0,0.00
2013-4-19,60,51,41,31,20,3,51,31,16,30.16,29.92,5,1,0,0.00
2013-4-20,65,53,43,44,34,24,62,50,23,29.99,29.87,12,3,0,0.00
2013-4-21,68,58,48,40,27,4,60,33,9,29.94,29.83,8,2,0,0.00
2013-4-22,66,57,49,38,32,21,56,39,28,29.85,29.73,12,4,0,0.00
2013-4-23,64,56,47,40,24,14,70,35,15,29.85,29.70,16,3,0,0.00
2013-4-24,66,56,49,39,28,18,68,36,17,29.77,29.65,18,3,0,0.00
2013-4-25,59,49,42,46,41,38,91,75,60,30.01,29.70,11,2,0,0.00
2013-4-26,65,53,42,49,43,40,94,72,49,30.10,29.97,9,2,0,0.00
2013-4-27,70,58,48,46,39,30,77,50,31,30.11,29.93,10,2,0,0.00
2013-4-28,70,60,50,46,40,31,68,49,29,29.95,29.79,9,2,0,0.00
2013-4-29,70,60,51,45,37,27,62,42,25,29.79,29.62,8,2,0,0.00
2013-4-30,65,57,49,46,41,33,70,56,46,29.73,29.58,11,3,0,0.00
2013-5-1,68,57,44,34,12,-10,60,23,6,30.02,29.71,19,3,0,0.00
2013-5-2,65,56,48,5,-4,-12,12,9,6,30.11,29.99,22,4,0,0.00
2013-5-3,73,61,52,26,11,-8,29,15,7,30.04,29.69,10,1,0,0.00
2013-5-4,68,58,48,39,30,13,60,36,20,29.68,29.50,17,3,0,0.00
2013-5-5,50,41,37,40,32,7,100,77,18,29.80,29.51,30,15,0,0.00
2013-5-6,44,40,37,43,39,35,100,97,87,29.92,29.74,32,10,0,0.08
2013-5-7,42,39,36,42,39,35,100,99,90,29.97,29.86,14,2,0,0.30
2013-5-8,46,42,39,46,42,39,100,100,100,30.02,29.93,7,2,0,0.00
2013-5-10,65,58,54,53,48,42,80,69,61,30.05,29.98,8,2,0,0.00
2013-5-11,76,64,53,51,43,31,73,49,22,30.05,29.92,7,1,0,0.00
2013-5-12,77,66,56,53,48,42,86,56,34,30.00,29.89,7,2,0,0.00
2013-5-13,76,69,58,49,39,30,63,34,25,29.91,29.76,11,2,0,0.00
2013-5-14,69,63,54,44,33,6,58,36,9,29.80,29.72,14,3,0,0.00
2013-5-15,67,58,50,47,41,35,80,55,35,29.86,29.78,14,4,0,0.00
2013-5-16,55,48,42,43,40,35,99,74,62,29.86,29.75,14,3,0,0.00
2013-5-17,55,46,39,50,41,36,100,84,61,29.96,29.76,11,4,0,0.00
2013-5-18,58,48,38,36,31,24,87,54,35,30.02,29.89,19,4,0,0.00
2013-5-19,59,51,42,40,36,27,87,58,41,29.98,29.89,17,4,0,0.00
2013-5-20,72,60,46,39,29,20,70,34,16,29.95,29.81,17,2,0,0.00
2013-5-21,69,61,49,40,33,22,64,37,25,29.83,29.66,11,2,0,0.00
2013-5-22,52,43,34,37,31,21,92,64,47,29.82,29.64,22,4,0,0.00
2013-5-23,52,42,34,27,21,14,62,43,29,29.89,29.73,16,3,0,0.00
2013-5-24,62,48,36,38,30,24,70,51,38,29.89,29.81,13,1,0,0.00
2013-5-25,60,50,41,32,28,24,64,45,26,29.87,29.77,8,1,0,0.00
2013-5-26,55,47,39,39,37,31,92,68,50,29.97,29.83,13,3,0,0.00
2013-5-27,57,48,41,44,40,33,100,77,53,29.93,29.83,12,3,0,0.00
2013-5-28,47,44,42,47,45,42,100,100,99,29.83,29.73,19,6,0,0.36
2013-5-29,57,49,44,54,45,40,100,89,64,29.83,29.71,14,5,0,0.00
2013-5-30,64,52,41,46,41,37,97,68,46,29.85,29.74,14,4,0,0.00
2013-5-31,70,58,47,44,39,27,71,50,32,29.88,29.77,14,2,0,0.00
2013-6-1,81,70,56,41,31,21,54,27,12,29.83,29.63,8,1,0,0.00
2013-6-2,79,71,62,47,34,16,48,27,15,29.63,29.50,11,2,0,0.00
2013-6-3,75,66,57,49,42,34,65,45,23,29.66,29.50,10,2,0,0.00
2013-6-4,74,64,54,52,47,40,72,56,43,29.75,29.59,7,1,0,0.00
2013-6-5,81,66,53,55,48,37,83,55,22,29.79,29.71,8,1,0,0.00
2013-6-6,79,68,57,56,51,43,74,56,30,29.73,29.67,7,1,0,0.00
2013-6-7,84,71,59,57,49,36,70,49,18,29.69,29.58,7,1,0,0.00
2013-6-8,90,77,66,53,39,18,56,29,11,29.62,29.54,13,2,0,0.00
2013-6-9,76,70,59,52,28,4,57,25,9,29.67,29.53,21,4,0,0.00
2013-6-10,66,59,51,49,33,10,71,42,14,29.82,29.61,17,3,0,0.00
2013-6-11,78,67,54,43,33,26,49,30,17,29.83,29.71,6,1,0,0.00
2013-6-12,76,68,56,50,38,27,58,34,22,29.78,29.68,8,1,0,0.00
2013-6-13,63,56,52,39,27,10,61,35,15,29.92,29.76,14,4,0,0.00
2013-6-14,70,60,48,41,33,18,55,37,19,29.86,29.71,6,1,0,0.00
2013-6-15,72,62,54,36,29,19,50,31,18,29.81,29.68,7,2,0,0.00
2013-6-16,69,59,51,40,32,23,66,39,22,29.93,29.78,10,2,0,0.00
2013-6-17,68,58,49,41,36,32,63,46,26,29.93,29.82,14,3,0,0.00
2013-6-18,64,55,47,43,39,32,81,57,35,29.83,29.73,11,3,0,0.00
2013-6-19,55,46,36,42,34,25,94,64,32,29.91,29.73,22,3,0,0.00
2013-6-20,61,52,40,36,30,23,75,46,24,29.85,29.79,13,3,0,0.00
2013-6-21,64,55,45,39,34,27,72,47,31,29.85,29.73,14,3,0,0.00
2013-6-22,68,60,48,38,34,28,67,39,27,29.81,29.72,10,2,0,0.00
2013-6-23,58,56,53,39,35,31,58,47,36,29.72,29.66,8,1,0,0.00
2013-6-24,57,53,48,52,50,44,100,88,77,29.82,29.72,18,3,0,0.00
2013-6-25,71,59,48,53,51,47,98,76,51,29.86,29.80,11,4,0,0.00
2013-6-26,74,64,54,58,55,53,99,74,50,29.90,29.78,13,2,0,0.00
2013-6-27,83,69,58,61,56,50,92,65,36,29.91,29.83,7,1,0,0.00
2013-6-28,82,72,63,59,56,50,77,59,44,29.87,29.77,7,1,0,0.00
2013-6-29,84,74,64,53,50,46,63,44,28,29.79,29.68,14,2,0,0.00
2013-6-30,89,77,69,56,49,35,50,38,26,29.70,29.60,8,1,0,0.00
2013-7-1,90,77,68,56,49,44,53,39,20,29.71,29.59,7,1,0,0.00
2013-7-2,88,77,66,52,47,43,61,36,25,29.77,29.66,10,1,0,0.00
2013-7-3,86,74,66,51,47,42,48,38,26,29.75,29.62,10,1,0,0.00
2013-7-4,85,76,68,54,49,41,55,39,30,29.64,29.54,9,1,0,0.00
2013-7-5,84,75,68,54,49,30,60,42,23,29.59,29.52,8,1,0,0.00
2013-7-6,85,73,66,44,38,25,41,28,16,29.60,29.51,10,1,0,0.00
2013-7-7,83,73,65,42,36,30,43,27,16,29.69,29.55,8,1,0,0.00
2013-7-8,83,74,67,38,32,24,32,22,14,29.80,29.65,9,1,0,0.00
2013-7-9,84,74,64,40,31,22,32,21,13,29.88,29.78,8,1,0,0.00
2013-7-10,80,72,66,44,37,31,43,28,20,29.84,29.74,5,0,0,0.00
2013-7-11,75,68,62,47,42,31,51,39,27,29.78,29.67,13,1,0,0.00
2013-7-12,79,68,58,42,35,26,45,31,17,29.77,29.70,12,2,0,0.00
2013-7-13,81,71,62,41,37,29,45,29,19,29.79,29.71,7,1,0,0.00
2013-7-14,79,69,59,36,31,19,35,25,15,29.82,29.74,10,1,0,0.00
2013-7-15,80,70,60,42,32,20,37,25,19,29.75,29.61,8,2,0,0.00
2013-7-16,77,66,56,38,28,16,42,25,15,29.82,29.64,7,1,0,0.00
2013-7-17,76,65,55,46,34,21,63,35,13,29.90,29.79,7,1,0,0.00
2013-7-18,77,67,59,48,39,20,46,36,20,29.88,29.78,12,1,0,0.00
2013-7-19,85,73,61,47,41,31,51,33,17,29.77,29.64,9,1,0,0.00
2013-7-20,87,75,66,49,41,35,39,30,19,29.67,29.58,12,2,0,0.00
2013-7-21,83,72,64,56,47,37,72,41,28,29.72,29.57,8,1,0,0.02
2013-7-22,76,68,61,56,52,46,70,58,40,29.80,29.66,6,1,0,0.01
2013-7-23,77,68,60,54,50,45,72,55,37,29.84,29.77,8,1,0,0.00
2013-7-24,77,68,58,53,50,43,80,54,38,29.83,29.77,10,2,0,0.00
2013-7-25,81,71,60,50,47,44,62,44,30,29.86,29.75,10,1,0,0.00
2013-7-26,77,70,62,57,53,47,73,55,42,29.91,29.81,6,1,0,0.01
2013-7-27,81,70,61,54,49,46,67,49,33,29.84,29.68,9,1,0,0.00
2013-7-28,79,70,60,51,44,35,65,42,26,29.71,29.63,11,2,0,0.00
2013-7-29,80,70,60,48,40,22,64,39,12,29.81,29.65,7,2,0,0.00
2013-7-30,80,69,60,50,45,39,65,44,25,29.89,29.78,14,2,0,0.00
2013-7-31,79,68,58,47,32,9,61,34,9,29.91,29.80,12,2,0,0.00
2013-8-1,69,60,52,46,34,28,71,40,24,29.89,29.78,12,2,0,0.00
2013-8-2,70,62,50,36,25,10,57,28,13,29.84,29.76,11,2,0,0.00
2013-8-3,77,66,55,30,24,15,37,21,10,29.83,29.76,10,1,0,0.00
2013-8-4,81,69,60,37,31,23,39,25,15,29.81,29.73,7,1,0,0.00
2013-8-5,79,68,57,38,31,15,40,26,13,29.83,29.73,6,1,0,0.00
2013-8-6,79,67,58,42,38,31,51,36,19,29.83,29.73,12,2,0,0.00
2013-8-7,70,60,54,46,39,26,71,47,28,29.90,29.79,11,2,0,0.00
2013-8-8,72,58,48,45,41,35,87,55,28,29.85,29.75,7,1,0,0.00
2013-8-9,72,60,50,46,41,36,73,51,31,29.82,29.72,11,1,0,0.00
2013-8-10,69,59,49,44,41,34,80,52,31,29.89,29.77,11,1,0,0.00
2013-8-11,72,61,51,47,43,39,76,54,38,29.87,29.80,7,1,0,0.00
2013-8-12,76,64,54,47,43,36,71,49,26,29.85,29.76,8,1,0,0.00
2013-8-13,79,68,57,46,42,35,65,42,25,29.84,29.77,7,1,0,0.00
2013-8-14,80,69,58,44,37,29,60,34,16,29.83,29.74,10,1,0,0.00
2013-8-15,85,72,60,41,31,6,47,25,8,29.79,29.71,11,2,0,0.00
2013-8-16,82,73,63,50,40,21,45,31,16,29.80,29.72,7,1,0,0.00
2013-8-17,82,71,62,50,43,35,54,38,25,29.82,29.70,5,1,0,0.00
2013-8-18,83,72,62,49,38,-8,57,32,4,29.75,29.66,13,3,0,0.00
2013-8-19,82,72,66,54,49,41,61,46,34,29.75,29.65,25,6,0,0.00
2013-8-20,81,73,68,49,38,27,49,30,14,29.74,29.65,17,6,0,0.00
2013-8-21,82,74,68,41,31,21,34,21,14,29.77,29.65,14,7,0,0.00
2013-8-22,82,73,65,45,32,24,44,24,13,29.77,29.66,20,6,0,0.00
2013-8-23,80,69,61,46,32,20,55,27,11,29.71,29.61,13,2,0,0.00
2013-8-24,77,66,56,46,39,28,69,39,22,29.73,29.61,6,1,0,0.00
2013-8-25,77,67,58,48,30,13,53,27,14,29.80,29.69,10,1,0,0.00
2013-8-26,76,66,62,56,46,14,79,51,15,29.81,29.70,10,1,0,0.00
2013-8-27,75,66,57,57,55,52,84,69,49,29.73,29.65,11,2,0,0.00
2013-8-28,79,70,60,54,47,40,81,46,29,29.79,29.62,12,2,0,0.00
2013-8-29,81,72,62,50,44,37,59,38,26,29.83,29.72,8,1,0,0.00
2013-8-30,82,71,60,54,50,45,75,49,35,29.86,29.77,11,1,0,0.00
2013-8-31,80,69,63,54,49,44,61,49,34,29.84,29.74,7,1,0,0.00
2013-9-1,79,67,60,58,55,50,92,65,48,29.78,29.70,12,2,0,0.00
2013-9-2,80,70,62,56,49,42,75,50,29,29.78,29.68,10,2,0,0.00
2013-9-3,80,70,61,56,49,45,80,50,30,29.78,29.67,9,2,0,0.00
2013-9-4,82,73,65,49,44,41,56,37,24,29.83,29.72,13,2,0,0.00
2013-9-5,83,73,62,46,43,41,54,35,24,29.78,29.70,12,1,0,0.00
2013-9-6,84,73,64,45,39,34,48,29,20,29.78,29.66,8,1,0,0.00
2013-9-7,81,73,66,40,32,22,35,23,16,29.77,29.67,9,1,0,0.00
2013-9-8,80,70,61,46,35,23,48,28,20,29.75,29.64,5,1,0,0.00
2013-9-9,78,69,62,47,41,32,51,37,27,29.69,29.57,10,1,0,0.00
2013-9-10,79,68,61,42,39,34,47,35,23,29.73,29.57,10,1,0,0.00
2013-9-11,73,64,56,45,40,36,60,43,27,29.84,29.70,8,1,0,0.00
2013-9-12,76,64,55,44,37,27,63,39,25,29.83,29.74,7,1,0,0.00
2013-9-13,76,66,57,47,41,30,57,41,28,29.75,29.62,6,0,0,0.00
2013-9-14,82,69,60,50,46,37,59,45,20,29.66,29.55,6,1,0,0.00
2013-9-15,81,71,61,51,38,31,67,32,17,29.65,29.54,19,3,0,0.00
2013-9-16,78,70,63,44,31,25,50,24,15,29.71,29.59,22,6,0,0.00
2013-9-17,70,61,50,47,36,6,74,44,10,29.68,29.58,10,1,0,0.00
2013-9-18,65,53,44,45,41,8,84,64,13,29.79,29.65,7,1,0,0.00
2013-9-19,77,68,57,28,22,10,25,18,12,29.74,29.61,11,1,0,0.00
2013-9-20,75,66,52,42,30,21,53,28,15,29.67,29.56,16,3,0,0.00
2013-9-21,62,53,43,48,41,22,100,65,27,29.73,29.63,14,2,0,0.06
2013-9-22,44,41,38,44,41,38,100,100,99,29.93,29.63,16,4,0,0.07
2013-9-23,73,59,42,44,33,24,99,43,20,29.93,29.75,10,1,0,0.00
2013-9-24,72,63,54,44,30,20,67,31,18,29.81,29.67,12,2,0,0.00
2013-9-25,54,45,40,44,39,34,98,80,60,29.72,29.64,17,3,0,0.00
2013-9-26,45,39,34,42,34,28,100,82,61,29.96,29.62,12,2,0,0.00
2013-9-27,59,48,36,34,28,16,80,48,25,30.01,29.89,9,1,0,0.00
2013-9-28,67,58,51,27,18,14,33,22,15,29.99,29.90,10,1,0,0.00
2013-9-29,69,59,52,27,17,0,35,21,10,29.99,29.89,10,1,0,0.00
2013-9-30,60,54,45,42,34,21,85,49,27,29.95,29.83,14,3,0,0.00
2013-10-1,66,55,46,47,40,27,92,60,24,29.86,29.76,7,1,0,0.00
2013-10-2,59,52,47,47,42,39,85,70,48,29.84,29.71,17,2,0,0.00
2013-10-3,50,44,39,41,33,23,87,67,38,29.91,29.78,16,4,0,0.00
2013-10-4,58,50,43,23,10,5,37,21,13,30.07,29.84,21,6,0,0.00
2013-10-5,62,53,46,15,11,3,28,19,11,30.14,30.02,25,5,0,0.00
2013-10-6,68,60,54,11,7,2,17,12,8,30.04,29.89,18,3,0,0.00
2013-10-7,70,60,53,22,10,5,29,14,9,29.89,29.74,16,2,0,0.00
2013-10-8,62,54,46,29,25,19,51,34,20,29.75,29.56,10,1,0,0.00
2013-10-9,45,37,31,38,34,27,99,91,49,29.71,29.49,12,4,0,0.07
2013-10-10,48,39,31,41,35,31,100,86,65,29.95,29.73,7,2,0,0.48
2013-10-11,61,52,40,38,31,20,74,47,25,29.93,29.84,14,2,0,0.00
2013-10-12,61,52,45,33,26,17,57,38,27,29.86,29.76,10,1,0,0.00
2013-10-13,50,44,39,36,34,28,80,67,48,29.99,29.71,11,1,0,0.00
2013-10-14,59,51,42,33,26,20,72,39,27,30.05,29.89,16,2,0,0.00
2013-10-15,61,53,47,23,21,16,39,29,22,29.93,29.85,17,2,0,0.00
2013-10-16,64,53,46,28,17,9,41,25,16,30.02,29.89,13,2,0,0.00
2013-10-17,60,51,43,31,26,17,58,39,27,30.00,29.88,7,1,0,0.00
2013-10-18,66,58,47,25,16,11,38,20,13,29.96,29.85,18,2,0,0.00
2013-10-19,71,60,52,28,14,9,23,16,10,29.97,29.86,7,1,0,0.00
2013-10-20,69,60,54,30,13,-2,28,16,8,29.88,29.76,10,1,0,0.00
2013-10-21,67,61,54,14,8,-14,16,12,5,29.86,29.76,18,2,0,0.00
2013-10-22,67,61,58,17,14,10,19,16,13,29.89,29.78,14,2,0,0.00
2013-10-23,68,60,54,25,18,14,28,20,13,29.81,29.73,8,0,0,0.00
2013-10-24,66,57,51,29,23,14,43,28,15,29.96,29.75,7,1,0,0.00
2013-10-25,69,59,49,34,21,15,55,24,15,30.02,29.91,5,0,0,0.00
2013-10-26,70,63,59,21,18,15,22,18,13,29.98,29.85,8,1,0,0.00
2013-10-27,66,58,46,36,22,12,68,28,14,29.85,29.49,13,2,0,0.00
2013-10-28,46,37,33,36,32,19,100,82,42,29.80,29.50,17,4,0,0.07
2013-10-29,35,34,33,35,34,33,100,100,100,29.90,29.78,15,3,0,0.12
2013-10-30,50,45,39,39,35,15,88,69,30,30.03,29.95,2,0,0,0.00
2013-10-31,58,54,45,22,18,2,30,25,16,30.01,29.93,7,1,0,0.00
2013-11-1,62,56,50,22,19,13,30,24,17,30.03,29.91,17,4,0,0.00
2013-11-2,62,53,44,34,22,16,68,32,19,29.91,29.73,18,3,0,0.00
2013-11-3,48,41,36,46,37,32,100,86,63,29.88,29.70,14,3,0,0.00
2013-11-4,46,37,29,37,29,24,91,75,47,29.98,29.69,12,1,0,0.00
2013-11-5,50,45,38,21,6,1,49,21,14,30.14,29.92,12,3,0,0.00
2013-11-6,56,53,47,20,12,-1,28,20,13,30.18,30.07,19,6,0,0.00
2013-11-7,65,56,52,23,16,9,29,21,16,30.07,29.92,17,3,0,0.00
2013-11-8,66,58,51,16,2,-19,21,11,4,29.94,29.80,10,1,0,0.00
2013-11-9,63,56,52,17,4,-8,24,13,7,29.93,29.80,21,4,0,0.00
2013-11-10,62,57,54,11,4,-11,15,12,6,29.99,29.87,13,4,0,0.00
2013-11-11,64,57,52,23,15,7,26,19,14,30.05,29.92,19,5,0,0.00
2013-11-12,66,60,55,26,16,10,31,19,14,30.12,29.98,12,1,0,0.00
2013-11-13,65,57,50,33,21,13,39,26,18,30.04,29.89,7,0,0,0.00
2013-11-14,68,58,46,31,22,19,55,27,15,29.95,29.63,8,2,0,0.00
2013-11-15,47,40,35,39,35,29,98,83,50,29.75,29.54,10,2,0,0.00
2013-11-16,46,38,33,34,31,30,94,77,58,29.85,29.65,12,3,0,0.00
2013-11-17,53,44,32,35,31,28,94,63,41,30.01,29.82,10,1,0,0.00
2013-11-18,54,45,38,37,35,32,85,67,51,30.02,29.91,13,3,0,0.00
2013-11-19,42,39,36,42,36,26,100,90,53,29.99,29.90,14,4,0,0.00
2013-11-20,50,42,36,43,40,31,100,91,65,29.90,29.73,12,5,0,0.00
2013-11-21,42,40,35,42,40,35,100,100,99,29.79,29.68,9,2,0,0.71
2013-11-25,48,45,42,27,27,26,56,49,42,30.21,30.16,2,0,0,0.00
2013-11-26,50,47,43,30,25,22,57,44,34,30.06,29.99,19,6,0,0.00
2013-11-27,47,44,41,30,28,26,58,53,50,29.86,29.77,20,12,0,0.00
2013-11-30,54,46,40,33,28,26,62,51,37,30.19,30.05,5,0,0,0.00
2013-12-1,59,53,47,27,20,3,45,28,12,30.17,30.04,6,1,0,0.00
2013-12-2,62,53,46,26,16,8,46,24,13,30.08,29.74,8,2,0,0.00
2013-12-3,45,39,36,39,34,26,100,82,48,29.75,29.62,13,4,0,0.04
2013-12-15,59,56,54,15,13,11,21,18,16,30.11,30.06,13,3,0,0.00
2013-12-16,62,59,55,16,8,1,19,13,10,30.12,30.00,14,5,0,0.00
2013-12-17,66,60,56,18,13,9,19,16,14,30.05,29.86,14,3,0,0.00
2013-12-18,59,52,38,31,19,10,71,31,14,29.88,29.59,13,4,0,0.00
2013-12-19,36,35,34,33,32,32,94,90,85,29.58,29.58,10,8,0,0.00
2013-12-22,48,48,48,26,26,26,43,43,43,30.10,30.10,0,0,0,0.00
2013-12-23,54,50,46,28,26,22,47,40,35,30.24,30.19,4,0,0,0.00
2013-12-24,60,54,47,23,15,6,39,23,15,30.11,30.06,11,3,0,0.00
2013-12-25,55,50,46,22,4,-7,37,16,10,30.19,30.10,13,3,0,0.00
2013-12-26,57,52,47,-2,-7,-14,11,8,6,30.17,30.08,14,2,0,0.00
2013-12-27,60,54,50,6,-1,-14,13,10,6,30.11,29.95,14,1,0,0.00
2013-12-28,57,51,45,2,-4,-9,16,11,8,29.95,29.83,13,1,0,0.00
2013-12-29,58,51,43,8,-3,-14,15,11,6,30.11,29.92,14,2,0,0.00
2013-12-30,60,50,45,5,0,-14,19,13,7,30.14,30.04,10,2,0,0.00
2013-12-31,58,51,47,4,-6,-12,17,9,7,30.11,29.99,14,3,0,0.00
2014-1-1,57,53,47,18,12,-2,27,20,12,30.06,29.99,14,4,0,0.00
2014-1-2,61,54,50,20,15,6,28,21,16,30.02,29.91,13,2,0,0.00